Regional Weather Roundup
Issued by NWS Little Rock, AR

Home | Current Version | Previous Version | Text Only | Print | Product List | Glossary Off
Versions: 1 2 3 4 5 6 7 8 9 10 11 12 13 14 15 16 17 18 19 20 21 22 23 24 25 26 27 28 29 30 31 32 33 34 35 36 37 38 39 40 41 42 43 44

000
ASUS44 KLZK 210805
RWRLZK

WEATHER ROUNDUP FOR ARKANSAS
NATIONAL WEATHER SERVICE LITTLE ROCK AR
300 AM CDT TUE OCT 21 2014

NOTE: "FAIR" INDICATES FEW OR NO CLOUDS BELOW 12,000 FEET WITH NO
SIGNIFICANT WEATHER AND/OR OBSTRUCTIONS TO VISIBILITY.

ARZ001-003-010-029-210900-
NORTHWEST ARKANSAS

CITY           SKY/WX    TMP DP  RH WIND       PRES   REMARKS
FAYETTEVILLE   FOG       50  50 100 CALM      30.09S VSB 1/4
FORT SMITH     CLEAR     59  56  89 CALM      30.07R
HARRISON       CLEAR     55  55 100 NW3       30.10R FOG
BENTONVILLE    CLOUDY    48  46  93 CALM      30.09S VSB 1/4
ROGERS         MOCLDY    50  48  93 NE6       30.10S VSB 1/4
SILOAM SPGS    MOCLDY    50  45  81 CALM      30.10R VSB 1/2
HIGHFILL       FOG       47  47 100 CALM      30.08S VSB 1/4
$$

ARZ004-005-016-210900-
NORTH CENTRAL ARKANSAS

CITY           SKY/WX    TMP DP  RH WIND       PRES   REMARKS
BATESVILLE     CLEAR     57  55  94 W3        30.06R
FLIPPIN        CLEAR     54  48  82 CALM      30.08S VSB 1
MTN HOME       CLEAR     56  56 100 W3        30.08R FOG
$$

ARZ040-041-210900-
WEST CENTRAL ARKANSAS

CITY           SKY/WX    TMP DP  RH WIND       PRES   REMARKS
MENA           CLEAR     55  54  94 CALM      30.07S
MOUNT IDA      FOG       55  54  96 CALM      30.04F VSB 1/2
$$

ARZ009-017-025-026-028-210900-
NORTHEAST ARKANSAS

CITY           SKY/WX    TMP DP  RH WIND       PRES   REMARKS
CORNING        FAIR      54  54 100 CALM      30.06R
JONESBORO      CLEAR     60  57  89 N6        30.03S
NEWPORT        CLEAR     57  56  97 N8        30.05S
WALNUT RIDGE   CLEAR     54  52  94 N7        30.05R
BLYTHEVILLE    CLEAR     52  51  97 NW5       30.03S
$$

ARZ022-023-033-042-044-210900-
CENTRAL ARKANSAS

CITY           SKY/WX    TMP DP  RH WIND       PRES   REMARKS
LITTLE ROCK    CLEAR     57  53  86 CALM      30.05S
N LITTLE ROCK    N/A     60  59  96 NW6       30.05S
JACKSONVILLE   CLEAR     52  51  96 W5        30.04S
SEARCY         CLEAR     52  52 100 CALM      30.05S FOG
HOT SPRINGS    FOG       55  54  96 CALM      30.06S VSB 1/4
RUSSELLVILLE   CLEAR     53  52  96 CALM      30.06S
$$

ARZ036-210900-
EAST ARKANSAS

CITY           SKY/WX    TMP DP  RH WIND       PRES   REMARKS
WEST MEMPHIS   PTCLDY    53  53 100 CALM      30.02S
$$

ARZ050-053-066-070-073-210900-
SOUTHWEST ARKANSAS

CITY           SKY/WX    TMP DP  RH WIND       PRES   REMARKS
ARKADELPHIA    CLOUDY    56  56 100 NE3       30.06S FOG
CAMDEN         FOG       54  50  87 CALM      30.05S VSB 1/4
TEXARKANA      CLEAR     59  55  87 CALM      30.04F
EL DORADO      CLEAR     54  53  97 CALM      30.05S
DE QUEEN       FOG       55  54  96 CALM      30.04S VSB 1/2
$$

ARZ056-057-069-210900-
SOUTHEAST ARKANSAS

CITY           SKY/WX    TMP DP  RH WIND       PRES   REMARKS
PINE BLUFF     CLOUDY    60  56  86 CALM      30.05S
STUTTGART      CLEAR     55  52  88 SW5       30.05S
MONTICELLO     CLEAR     54  52  93 CALM      30.04S

$$




USA.gov is the U.S. government's official web portal to all federal, state and local government web resources and services.